Lancaster, PA

6:04 PM EDT on May 26, 2018 (GMT -0400)
Lancaster

Weather History for KLNS - September, 2014

Change the Weather History Date:

Monday, September 29, 2014

  Actual Average Record
Temperature  
Mean Temperature 65 °F -  
Max Temperature 73 °F 70 °F 81 °F (1986)
Min Temperature 57 °F 47 °F 37 °F (1978)
Growing Degree Days 15 (Base 50)    
Moisture  
Dew Point 58 °F    
Average Humidity 78    
Maximum Humidity 97    
Minimum Humidity 55    
Precipitation  
Precipitation 0.00 in - - ()
Sea Level Pressure  
Sea Level Pressure 29.97 in    
Wind  
Wind Speed 2 mph (South)    
Max Wind Speed 7 mph    
Max Gust Speed -    
Visibility 8 miles    
Events      
Averages and records for this station are not official NWS values.
T = Trace of Precipitation, MM = Missing Value Source: NWS Daily Summary

Daily Weather History Graph

Daily Weather History Graph

Search for Another Location

Airport or City:

Astronomy

Sep. 29, 2014 Rise Set
Actual Time 6:59 AM EDT 6:50 PM EDT
Civil Twilight 6:32 AM EDT 7:17 PM EDT
Nautical Twilight 6:00 AM EDT 7:49 PM EDT
Astronomical Twilight 5:29 AM EDT 8:21 PM EDT
Moon 12:09 PM EDT (9/29) 10:22 PM EDT (9/29)
Length of Visible Light 12h 45m
Length of Day
11h 51m
Waxing Crescent, 27% of the Moon is Illuminated
Sep 29
Waxing Crescent
Oct 1
First Quarter
Oct 8
Full
Oct 15
Last Quarter
Oct 23
New

Hourly Weather History & Observations

Time (EDT) Temp. Dew Point Humidity Pressure Visibility Wind Dir Wind Speed Gust Speed Precip Events Conditions
12:53 AM 64.0 °F 55.0 °F 73% 30.03 in 10.0 mi Calm Calm - N/A   Clear
1:53 AM 62.1 °F 55.9 °F 80% 30.02 in 10.0 mi Calm Calm - N/A   Clear
2:53 AM 61.0 °F 55.0 °F 81% 30.01 in 10.0 mi West 3.5 mph - N/A   Clear
3:53 AM 61.0 °F 55.9 °F 83% 30.01 in 8.0 mi Calm Calm - N/A   Clear
4:53 AM 60.1 °F 55.9 °F 86% 30.00 in 8.0 mi Calm Calm - N/A   Clear
5:53 AM 59.0 °F 55.0 °F 87% 30.01 in 8.0 mi Calm Calm - N/A   Clear
6:53 AM 57.9 °F 55.9 °F 93% 30.01 in 7.0 mi Calm Calm - N/A   Clear
7:53 AM 59.0 °F 57.0 °F 93% 30.01 in 5.0 mi NE 3.5 mph - N/A   Clear
8:53 AM 62.1 °F 57.9 °F 86% 30.00 in 5.0 mi Calm Calm - N/A   Clear
9:53 AM 64.9 °F 57.9 °F 78% 30.00 in 6.0 mi West 3.5 mph - N/A   Haze
10:53 AM 70.0 °F 57.0 °F 63% 29.99 in 8.0 mi Calm Calm - N/A   Clear
11:53 AM 73.0 °F 55.9 °F 55% 29.99 in 10.0 mi SW 3.5 mph - N/A   Clear
12:53 PM 73.0 °F 57.0 °F 57% 29.98 in 10.0 mi SSW 4.6 mph - N/A   Clear
1:53 PM 73.0 °F 59.0 °F 61% 29.95 in 10.0 mi SSW 4.6 mph - N/A   Scattered Clouds
2:53 PM 73.0 °F 57.0 °F 57% 29.94 in 10.0 mi SSW 4.6 mph - N/A   Partly Cloudy
3:53 PM 73.0 °F 59.0 °F 61% 29.93 in 10.0 mi South 4.6 mph - N/A   Partly Cloudy
4:53 PM 73.0 °F 59.0 °F 61% 29.92 in 10.0 mi South 4.6 mph - N/A   Clear
5:53 PM 72.0 °F 60.1 °F 66% 29.92 in 10.0 mi Calm Calm - N/A   Clear
6:53 PM 70.0 °F 61.0 °F 73% 29.93 in 10.0 mi SSW 3.5 mph - N/A   Clear
7:53 PM 69.1 °F 63.0 °F 81% 29.93 in 10.0 mi South 6.9 mph - N/A   Mostly Cloudy
8:53 PM 66.9 °F 64.0 °F 90% 29.94 in 7.0 mi Calm Calm - N/A   Clear
9:53 PM 64.9 °F 62.1 °F 90% 29.95 in 5.0 mi Calm Calm - N/A   Clear
10:53 PM 64.0 °F 62.1 °F 93% 29.94 in 4.0 mi East 3.5 mph - N/A   Clear
11:19 PM 63.0 °F 61.0 °F 93% 29.94 in 2.5 mi East 3.5 mph - N/A   Clear
11:53 PM 63.0 °F 62.1 °F 97% 29.92 in 2.0 mi East 4.6 mph - N/A   Clear